Flag for Norway Weather past 2 weeks in Fredrikstad, Norway

Now
45 °F

Light rain. More clouds than sun.


Feels Like: 38 °F
Forecast: 46 / 59 °F
Wind: 15 mph from East

Location: Rygge

Current Time: May 30, 2015 at 8:56:47 AM

Latest Report: May 30, 2015 at 7:50 AM


Visibility: 6 mi

Pressure: 29.50 "Hg

Humidity: 93%

Dew point: 43 °F

Location of FredrikstadLocation

Historic Weather in Fredrikstad — Graph

°F

Fredrikstad temperature yesterday

Maximum temperature yesterday: 54 °F (at 10:50 AM)
Minimum temperature yesterday: 45 °F (at 3:50 AM)
Average temperature yesterday: 50 °F

Past Weeks' High & Low Weather Summary

 TemperatureHumidityPressure
High64 °F (May 23, 4:50 PM)100% (May 16, 9:50 PM)30.04 "Hg (May 16, 9:50 PM)
Low34 °F (May 18, 4:50 AM)30% (May 23, 6:20 PM)29.45 "Hg (May 19, 6:50 AM)
Average49 °F74%29.78 "Hg
* Reported May 15 7:20 AM — May 30 7:50 AM, Fredrikstad, Weather by CustomWeather, © 2015

Note: Actual official high and low records may vary slightly from our data, if they occured in-between our weather recording intervals... More about our weather records

Advertising

Fredrikstad weather history for previous 24 hours

 ConditionsComfort  
Time TempWeatherWind HumidityBarometerVisibility
7:50 AM
Sat, May 30
45 °FLight rain. More clouds than sun.15 mph93%29.50 "Hg6 mi
7:20 AM45 °FLight rain. Broken clouds.16 mph93%29.53 "HgN/A
6:50 AM46 °FLight rain. Broken clouds.14 mph87%29.53 "HgN/A
6:20 AM46 °FLight rain. Partly sunny.14 mph93%29.53 "HgN/A
5:50 AM46 °FRain. Mostly cloudy.14 mph93%29.53 "HgN/A
5:20 AM46 °FDrizzle. Mostly cloudy.13 mph93%29.53 "HgN/A
4:50 AM45 °FDrizzle. Mostly cloudy.10 mph100%29.53 "HgN/A
4:20 AM45 °FLight rain. Mostly cloudy.8 mph100%29.53 "Hg6 mi
3:50 AM45 °FLight rain. Partly cloudy.8 mph100%29.56 "HgN/A
3:20 AM45 °FLight rain. Partly cloudy.9 mph100%29.56 "HgN/A
2:50 AM45 °FLight rain. Overcast.9 mph93%29.59 "HgN/A
2:20 AM45 °FLight rain. Mostly cloudy.8 mph93%29.59 "HgN/A
1:50 AM46 °FLight rain. Mostly cloudy.8 mph87%29.59 "HgN/A
1:20 AM46 °FLight rain. Partly cloudy.8 mph93%29.59 "HgN/A
12:50 AM46 °FPartly cloudy.8 mph87%29.62 "HgN/A
12:20 AM48 °FPartly cloudy.7 mph82%29.62 "HgN/A
11:50 PM
Fri, May 29
48 °FMostly cloudy.7 mph82%29.62 "HgN/A
11:20 PM46 °FPartly cloudy.7 mph82%29.65 "HgN/A
10:50 PM48 °FPartly sunny.8 mph76%29.65 "HgN/A
10:20 PM48 °FBroken clouds.10 mph76%29.65 "HgN/A
9:50 PM48 °FBroken clouds.12 mph82%29.65 "HgN/A
9:20 PM50 °FScattered clouds.10 mph76%29.62 "HgN/A
8:50 PM50 °FScattered clouds.15 mph76%29.62 "HgN/A
8:20 PM50 °FScattered clouds.16 mph71%29.62 "HgN/A
7:50 PM52 °FScattered clouds.17 mph72%29.62 "HgN/A
7:20 PM52 °FScattered clouds.16 mph72%29.62 "HgN/A
6:50 PM52 °FPassing clouds.17 mph67%29.62 "HgN/A
6:20 PM52 °FScattered clouds.18 mph72%29.62 "HgN/A
5:50 PM54 °FPassing clouds.18 mph67%29.62 "HgN/A
5:20 PM54 °FSunny.20 mph67%29.62 "Hg10 mi
4:50 PM54 °FSunny.21 mph67%29.59 "Hg10 mi
4:20 PM54 °FClear.21 mph72%29.59 "HgN/A
3:50 PM54 °FSunny.20 mph67%29.59 "Hg10 mi
3:20 PM54 °FSunny.21 mph67%29.59 "Hg10 mi
2:50 PM54 °FSunny.21 mph72%29.59 "Hg10 mi
2:20 PM54 °FSunny.18 mph67%29.59 "Hg10 mi
1:50 PM54 °FSunny.20 mph67%29.59 "Hg10 mi
1:20 PM54 °FSunny.18 mph67%29.59 "Hg10 mi
12:50 PM54 °FScattered clouds.20 mph67%29.59 "HgN/A
12:20 PM54 °FSunny.17 mph67%29.59 "Hg10 mi
11:50 AM52 °FSunny.18 mph67%29.59 "Hg10 mi
11:20 AM52 °FClear.17 mph67%29.56 "Hg6 mi
10:50 AM54 °FPassing clouds.13 mph63%29.56 "HgN/A
10:20 AM52 °FPassing clouds.12 mph62%29.56 "HgN/A
9:50 AM52 °FPassing clouds.12 mph62%29.56 "HgN/A
9:20 AM52 °FSunny.13 mph62%29.56 "Hg10 mi
8:50 AM50 °FSunny.14 mph62%29.56 "Hg10 mi
8:20 AM50 °FPassing clouds.7 mph62%29.56 "HgN/A
Weather by CustomWeather, © 2015

See weather overviewHow to use our weather pages